Home > Weather > Neu-Isenburg > Past weeks

Flag for Germany Weather for the Past 2 Weeks in Neu-Isenburg, Hesse, Germany

Now
36 °F

Light rain. Partly cloudy.


Feels Like: 33 °F
Forecast: 35 / 43 °F
Wind: 3 mph from West

Location: Frankfurt-M-Flughafen Airport

Current Time: Feb 12, 2016 at 2:25:47 AM

Latest Report: Feb 12, 2016 at 1:20 AM


Visibility: N/A

Pressure: 29.71 "Hg

Humidity: 93%

Dew point: 34 °F

Location of Neu-IsenburgLocation

Historic Weather in Neu-Isenburg — Graph

°F

Neu-Isenburg Temperature Yesterday

Maximum temperature yesterday: 45 °F (at 2:20 PM)
Minimum temperature yesterday: 36 °F (at 10:20 PM)
Average temperature yesterday: 40 °F

High & Low Weather Summary for the Past Weeks

 TemperatureHumidityPressure
High57 °F (Feb 1, 3:50 AM)100% (Jan 29, 2:20 AM)30.39 "Hg (Jan 29, 2:20 AM)
Low28 °F (Jan 29, 4:50 AM)54% (Jan 28, 12:50 PM)29.03 "Hg (Feb 9, 5:50 PM)
Average44 °F80%29.92 "Hg
* Reported Jan 28 12:20 AM — Feb 12 12:50 AM, Neu-Isenburg, Weather by CustomWeather, © 2016

Note: Actual official high and low records may vary slightly from our data, if they occured in-between our weather recording intervals... More about our weather records

Advertising

Neu-Isenburg Weather History for the Previous 24 Hours

 ConditionsComfort  
Time TempWeatherWind HumidityBarometerVisibility
12:50 AM
Fri, Feb 12
36 °FPassing clouds.2 mph93%29.71 "HgN/A
12:20 AM36 °FPassing clouds.1 mph93%29.71 "HgN/A
11:50 PM
Thu, Feb 11
36 °FPassing clouds.2 mph87%29.71 "HgN/A
10:50 PM36 °FPassing clouds.6 mph93%29.71 "HgN/A
10:20 PM36 °FClear.7 mph93%29.71 "Hg10 mi
9:50 PM37 °FClear.5 mph87%29.71 "Hg10 mi
9:20 PM37 °FClear.6 mph87%29.71 "Hg10 mi
8:50 PM37 °FClear.7 mph87%29.71 "Hg10 mi
8:20 PM37 °FClear.7 mph87%29.71 "Hg10 mi
7:50 PM37 °FPartly cloudy.7 mph87%29.71 "HgN/A
7:20 PM37 °FPassing clouds.6 mph87%29.71 "HgN/A
6:50 PM39 °FPassing clouds.6 mph81%29.71 "HgN/A
6:20 PM39 °FPartly cloudy.7 mph81%29.71 "HgN/A
5:50 PM39 °FPassing clouds.9 mph81%29.71 "HgN/A
5:20 PM41 °FBroken clouds.10 mph76%29.71 "HgN/A
4:50 PM43 °FScattered showers. Broken clouds.12 mph71%29.68 "HgN/A
4:20 PM43 °FScattered showers. Broken clouds.16 mph71%29.68 "HgN/A
3:50 PM45 °FBroken clouds.13 mph66%29.68 "HgN/A
3:20 PM45 °FScattered showers. Partly sunny.15 mph71%29.68 "HgN/A
2:50 PM45 °FScattered showers. Broken clouds.14 mph71%29.68 "HgN/A
2:20 PM45 °FBroken clouds.15 mph71%29.71 "HgN/A
1:50 PM43 °FBroken clouds.15 mph76%29.71 "HgN/A
1:20 PM43 °FPartly sunny.13 mph76%29.71 "HgN/A
12:50 PM43 °FPartly sunny.14 mph76%29.71 "HgN/A
12:20 PM43 °FBroken clouds.13 mph76%29.71 "HgN/A
11:50 AM43 °FBroken clouds.13 mph81%29.71 "HgN/A
11:20 AM43 °FBroken clouds.10 mph81%29.71 "HgN/A
10:50 AM41 °FBroken clouds.12 mph81%29.71 "HgN/A
10:20 AM41 °FPartly sunny.10 mph81%29.71 "HgN/A
9:50 AM41 °FBroken clouds.12 mph81%29.71 "HgN/A
9:20 AM41 °FPartly sunny.9 mph81%29.71 "HgN/A
8:50 AM39 °FPartly sunny.10 mph87%29.71 "HgN/A
8:20 AM37 °FScattered clouds.10 mph87%29.71 "HgN/A
7:50 AM39 °FPartly sunny.9 mph87%29.68 "HgN/A
7:20 AM39 °FClear.9 mph87%29.68 "Hg10 mi
6:50 AM39 °FClear.12 mph87%29.68 "Hg10 mi
6:20 AM37 °FClear.7 mph87%29.68 "Hg10 mi
5:50 AM39 °FClear.9 mph81%29.68 "Hg10 mi
5:20 AM39 °FPassing clouds.10 mph81%29.68 "HgN/A
4:50 AM39 °FPassing clouds.12 mph87%29.68 "HgN/A
4:20 AM39 °FPassing clouds.12 mph87%29.65 "HgN/A
3:20 AM39 °FScattered showers. Passing clouds.12 mph87%29.65 "HgN/A
2:50 AM39 °FScattered showers. Passing clouds.9 mph87%29.65 "HgN/A
2:20 AM39 °FPassing clouds.12 mph87%29.62 "HgN/A
Weather by CustomWeather, © 2016

See weather overviewHow to use our weather pages